255P/Levy (2012)

Japanese version
Home page
Updated on February 10, 2013

---------------------------------------------------------------------

* Profile

Designation 255P/2011 Y1
Recovery Date December 17, 2011
Magnitude 19.8 mag
Recoverer Mt. Lemmon Survey

* Pictures

* Orbital Elements

Epoch 2012 Feb. 3.0 TT = JDT 2455960.5
T 2012 Jan. 14.94158 TT                                 MPC
q   1.0074603            (2000.0)            P               Q
n   0.18623580     Peri.  179.62806     -0.16320049     -0.93699059
a   3.0368775      Node   279.74593     +0.90437009     -0.01694603
e   0.6682578      Incl.   18.26516     +0.39430995     -0.34894337
P   5.29
From 430 observations 2006 Oct. 2-2012 Jan. 20, mean residual 0".9.

* Finding Charts

* Magnitudes Graph

        m1 = 17 + 5 log d + 40 log r

---------------------------------------------------------------------

The orbital elements are published on M.P.E.C. 2012-B23.
The charts are made with StellaNavigator Ver.2.0 for Windows (AstroArts / ASCII).
The magnitudes graphs are made with Comet for Windows.

---------------------------------------------------------------------

Copyright(C) Seiichi Yoshida (comet@aerith.net). All rights reserved.